Information on these data can be found in provided Readme document
Contact Info: Zachary Fasnacht (zachary.fasnacht@ssaihq.com); Nickolay Krotkov (nickolay.a.krotkov@nasa.gov); Lok Lamsal (lok.lamsal@nasa.gov)

FillValue: -999.
ScaleFactor: 1e15
Units: molecules/cm^2

Date(yyyy-mm-dd),City,Country,LonCenter,LatCenter,BoundingCoordinates,Median,Q1,Q3,Mean,Baseline_Median,Baseline_Q1,Baseline_Q3,Baseline_Mean,NumGoodSamples,NumTotalSamples
2015-01-01,Shenyang,China,123.4323,41.8059,[122.9323 41.3059 123.9323 42.3059],6.412,4.958,11.905,9.113,9.384,5.666,15.147,11.094,186.0,600.0
2015-01-02,Shenyang,China,123.4323,41.8059,[122.9323 41.3059 123.9323 42.3059],6.269,4.559,11.482,8.802,10.275,6.037,15.563,11.641,170.0,604.0
2015-01-03,Shenyang,China,123.4323,41.8059,[122.9323 41.3059 123.9323 42.3059],6.269,4.559,11.482,8.802,10.816,6.593,16.045,12.125,170.0,604.0
2015-01-04,Shenyang,China,123.4323,41.8059,[122.9323 41.3059 123.9323 42.3059],6.269,4.559,11.482,8.802,10.638,6.477,15.902,11.896,170.0,603.0
2015-01-05,Shenyang,China,123.4323,41.8059,[122.9323 41.3059 123.9323 42.3059],5.737,4.063,10.171,7.982,10.411,6.297,15.54,11.742,166.0,609.0
2015-01-06,Shenyang,China,123.4323,41.8059,[122.9323 41.3059 123.9323 42.3059],5.907,4.068,10.315,8.244,9.97,5.9,15.438,11.497,175.0,606.0
2015-01-07,Shenyang,China,123.4323,41.8059,[122.9323 41.3059 123.9323 42.3059],6.086,4.068,11.385,8.805,9.612,6.169,14.768,11.289,148.0,604.0
2015-01-08,Shenyang,China,123.4323,41.8059,[122.9323 41.3059 123.9323 42.3059],5.845,4.038,10.766,8.583,9.427,5.947,14.166,11.046,157.0,602.0
2015-01-09,Shenyang,China,123.4323,41.8059,[122.9323 41.3059 123.9323 42.3059],6.412,3.919,13.013,9.541,9.51,6.2,14.677,11.229,119.0,596.0
2015-01-10,Shenyang,China,123.4323,41.8059,[122.9323 41.3059 123.9323 42.3059],6.412,3.919,13.013,9.541,10.075,6.486,15.253,11.677,119.0,554.0
2015-01-11,Shenyang,China,123.4323,41.8059,[122.9323 41.3059 123.9323 42.3059],5.984,3.703,12.127,9.003,9.757,5.911,14.306,10.952,115.0,556.0
2015-01-12,Shenyang,China,123.4323,41.8059,[122.9323 41.3059 123.9323 42.3059],5.701,3.659,10.748,7.767,9.849,6.028,14.434,10.896,100.0,559.0
2015-01-13,Shenyang,China,123.4323,41.8059,[122.9323 41.3059 123.9323 42.3059],6.24,3.719,12.175,8.949,8.885,5.844,14.292,10.481,119.0,556.0
2015-01-14,Shenyang,China,123.4323,41.8059,[122.9323 41.3059 123.9323 42.3059],5.845,4.038,10.803,8.522,8.496,5.248,13.738,10.216,106.0,567.0
2015-01-15,Shenyang,China,123.4323,41.8059,[122.9323 41.3059 123.9323 42.3059],6.078,4.068,10.962,8.597,7.918,4.982,12.935,9.704,122.0,563.0
2015-01-16,Shenyang,China,123.4323,41.8059,[122.9323 41.3059 123.9323 42.3059],4.762,3.487,8.782,7.89,7.541,4.599,12.503,9.433,88.0,552.0
2015-01-17,Shenyang,China,123.4323,41.8059,[122.9323 41.3059 123.9323 42.3059],5.97,3.884,8.827,7.756,8.035,4.751,12.503,9.443,113.0,555.0
2015-01-18,Shenyang,China,123.4323,41.8059,[122.9323 41.3059 123.9323 42.3059],5.97,3.884,8.827,7.756,7.841,4.614,12.139,9.466,113.0,559.0
2015-01-19,Shenyang,China,123.4323,41.8059,[122.9323 41.3059 123.9323 42.3059],5.97,3.884,8.827,7.756,7.762,4.673,12.122,9.418,113.0,558.0
2015-01-20,Shenyang,China,123.4323,41.8059,[122.9323 41.3059 123.9323 42.3059],6.24,4.485,10.472,8.536,7.942,4.751,12.891,9.622,100.0,558.0
2015-01-21,Shenyang,China,123.4323,41.8059,[122.9323 41.3059 123.9323 42.3059],6.24,4.469,8.004,7.678,8.032,4.859,12.973,9.688,107.0,566.0
2015-01-22,Shenyang,China,123.4323,41.8059,[122.9323 41.3059 123.9323 42.3059],6.364,4.485,8.557,7.801,7.528,4.678,11.568,9.297,111.0,564.0
2015-01-23,Shenyang,China,123.4323,41.8059,[122.9323 41.3059 123.9323 42.3059],6.436,4.485,8.827,8.028,7.288,4.715,11.353,9.184,102.0,560.0
2015-01-24,Shenyang,China,123.4323,41.8059,[122.9323 41.3059 123.9323 42.3059],6.926,4.903,11.042,8.686,7.642,4.601,11.78,9.338,134.0,558.0
2015-01-25,Shenyang,China,123.4323,41.8059,[122.9323 41.3059 123.9323 42.3059],6.926,4.903,11.042,8.686,7.954,4.77,12.734,9.636,134.0,597.0
2015-01-26,Shenyang,China,123.4323,41.8059,[122.9323 41.3059 123.9323 42.3059],7.518,5.857,12.541,9.511,8.018,5.132,12.809,9.763,171.0,599.0
2015-01-27,Shenyang,China,123.4323,41.8059,[122.9323 41.3059 123.9323 42.3059],7.941,5.973,13.676,9.899,8.205,5.167,13.248,9.916,156.0,598.0
2015-01-28,Shenyang,China,123.4323,41.8059,[122.9323 41.3059 123.9323 42.3059],6.812,4.903,11.329,8.364,8.306,5.581,13.145,9.967,168.0,603.0
2015-01-29,Shenyang,China,123.4323,41.8059,[122.9323 41.3059 123.9323 42.3059],7.181,5.418,11.875,8.867,8.221,5.573,13.036,9.943,191.0,599.0
2015-01-30,Shenyang,China,123.4323,41.8059,[122.9323 41.3059 123.9323 42.3059],8.397,5.804,12.719,9.23,8.682,5.743,13.477,10.153,186.0,609.0
2015-01-31,Shenyang,China,123.4323,41.8059,[122.9323 41.3059 123.9323 42.3059],7.288,5.168,12.541,8.76,8.894,6.187,13.823,10.374,210.0,605.0
2015-02-01,Shenyang,China,123.4323,41.8059,[122.9323 41.3059 123.9323 42.3059],7.941,5.168,12.719,8.974,8.843,5.88,13.99,10.256,185.0,591.0
2015-02-02,Shenyang,China,123.4323,41.8059,[122.9323 41.3059 123.9323 42.3059],7.471,5.447,11.913,8.849,8.445,5.401,13.327,9.645,227.0,595.0
2015-02-03,Shenyang,China,123.4323,41.8059,[122.9323 41.3059 123.9323 42.3059],7.471,5.447,11.913,8.849,8.487,5.367,13.265,9.623,227.0,599.0
2015-02-04,Shenyang,China,123.4323,41.8059,[122.9323 41.3059 123.9323 42.3059],7.419,5.225,11.905,8.649,8.31,5.384,12.693,9.416,263.0,599.0
2015-02-05,Shenyang,China,123.4323,41.8059,[122.9323 41.3059 123.9323 42.3059],8.052,5.287,12.057,8.876,8.344,5.339,12.91,9.481,247.0,597.0
2015-02-06,Shenyang,China,123.4323,41.8059,[122.9323 41.3059 123.9323 42.3059],8.434,5.675,11.87,8.832,8.923,5.677,13.267,9.781,259.0,604.0
2015-02-07,Shenyang,China,123.4323,41.8059,[122.9323 41.3059 123.9323 42.3059],8.647,5.861,12.541,9.629,8.571,5.576,13.529,9.965,287.0,604.0
2015-02-08,Shenyang,China,123.4323,41.8059,[122.9323 41.3059 123.9323 42.3059],8.163,5.287,12.078,9.476,8.362,5.35,12.982,9.822,255.0,600.0
2015-02-09,Shenyang,China,123.4323,41.8059,[122.9323 41.3059 123.9323 42.3059],8.163,5.287,12.078,9.476,8.022,5.011,12.284,9.463,255.0,599.0
2015-02-10,Shenyang,China,123.4323,41.8059,[122.9323 41.3059 123.9323 42.3059],7.877,5.083,11.577,8.919,7.75,5.026,12.084,9.244,218.0,593.0
2015-02-11,Shenyang,China,123.4323,41.8059,[122.9323 41.3059 123.9323 42.3059],7.877,5.083,11.577,8.919,7.761,5.039,11.515,9.277,218.0,551.0
2015-02-12,Shenyang,China,123.4323,41.8059,[122.9323 41.3059 123.9323 42.3059],8.742,6.291,11.913,9.733,7.692,5.143,11.854,9.395,187.0,551.0
2015-02-13,Shenyang,China,123.4323,41.8059,[122.9323 41.3059 123.9323 42.3059],8.616,6.198,11.913,9.541,7.618,5.077,12.495,9.585,160.0,556.0
2015-02-14,Shenyang,China,123.4323,41.8059,[122.9323 41.3059 123.9323 42.3059],7.386,4.798,9.727,8.691,7.867,4.972,11.694,9.408,167.0,554.0
2015-02-15,Shenyang,China,123.4323,41.8059,[122.9323 41.3059 123.9323 42.3059],7.919,5.94,10.212,9.385,8.384,5.252,12.672,9.881,143.0,564.0
2015-02-16,Shenyang,China,123.4323,41.8059,[122.9323 41.3059 123.9323 42.3059],7.748,4.995,10.005,8.903,8.105,5.236,12.549,9.64,169.0,561.0
2015-02-17,Shenyang,China,123.4323,41.8059,[122.9323 41.3059 123.9323 42.3059],7.912,4.2,10.005,9.145,8.344,5.247,13.146,10.007,127.0,548.0
2015-02-18,Shenyang,China,123.4323,41.8059,[122.9323 41.3059 123.9323 42.3059],7.912,4.2,10.005,9.145,8.207,5.226,13.011,9.861,127.0,552.0
2015-02-19,Shenyang,China,123.4323,41.8059,[122.9323 41.3059 123.9323 42.3059],8.2,3.362,10.64,10.189,8.392,5.085,13.236,10.133,91.0,555.0
2015-02-20,Shenyang,China,123.4323,41.8059,[122.9323 41.3059 123.9323 42.3059],6.763,2.943,9.144,8.297,8.539,5.046,12.828,9.961,127.0,556.0
2015-02-21,Shenyang,China,123.4323,41.8059,[122.9323 41.3059 123.9323 42.3059],4.461,2.696,9.514,8.162,8.243,5.262,13.24,10.012,111.0,554.0
2015-02-22,Shenyang,China,123.4323,41.8059,[122.9323 41.3059 123.9323 42.3059],3.765,2.555,5.942,4.631,8.357,5.227,12.737,9.636,102.0,563.0
2015-02-23,Shenyang,China,123.4323,41.8059,[122.9323 41.3059 123.9323 42.3059],3.765,2.555,5.942,4.631,8.576,5.479,13.092,9.841,102.0,563.0
2015-02-24,Shenyang,China,123.4323,41.8059,[122.9323 41.3059 123.9323 42.3059],3.765,2.555,5.942,4.631,8.717,5.583,12.91,9.866,102.0,559.0
2015-02-25,Shenyang,China,123.4323,41.8059,[122.9323 41.3059 123.9323 42.3059],4.012,2.696,5.472,4.666,9.11,5.515,13.326,10.203,134.0,556.0
2015-02-26,Shenyang,China,123.4323,41.8059,[122.9323 41.3059 123.9323 42.3059],4.012,2.696,5.472,4.666,8.63,5.299,12.699,9.688,134.0,596.0
2015-02-27,Shenyang,China,123.4323,41.8059,[122.9323 41.3059 123.9323 42.3059],4.867,3.043,9.721,6.713,8.018,4.78,12.822,9.545,172.0,597.0
2015-02-28,Shenyang,China,123.4323,41.8059,[122.9323 41.3059 123.9323 42.3059],4.867,3.043,9.984,6.757,8.36,4.998,12.945,9.821,169.0,597.0
2015-03-01,Shenyang,China,123.4323,41.8059,[122.9323 41.3059 123.9323 42.3059],5.221,3.223,10.085,7.023,9.139,5.319,13.628,10.337,151.0,601.0
2015-03-02,Shenyang,China,123.4323,41.8059,[122.9323 41.3059 123.9323 42.3059],5.221,3.223,10.083,6.997,8.373,4.821,12.95,9.707,156.0,597.0
2015-03-03,Shenyang,China,123.4323,41.8059,[122.9323 41.3059 123.9323 42.3059],5.942,3.61,10.573,7.299,8.505,5.355,13.19,9.927,136.0,608.0
2015-03-04,Shenyang,China,123.4323,41.8059,[122.9323 41.3059 123.9323 42.3059],5.833,3.61,10.083,7.165,8.744,4.96,13.019,9.907,158.0,601.0
2015-03-05,Shenyang,China,123.4323,41.8059,[122.9323 41.3059 123.9323 42.3059],5.833,3.61,10.083,7.165,8.418,4.906,13.621,9.977,158.0,589.0
2015-03-06,Shenyang,China,123.4323,41.8059,[122.9323 41.3059 123.9323 42.3059],5.618,3.396,9.488,7.271,8.006,4.676,13.293,9.677,198.0,593.0
2015-03-07,Shenyang,China,123.4323,41.8059,[122.9323 41.3059 123.9323 42.3059],5.942,3.686,10.085,7.733,8.184,4.77,13.507,9.869,162.0,595.0
2015-03-08,Shenyang,China,123.4323,41.8059,[122.9323 41.3059 123.9323 42.3059],6.68,4.125,12.013,8.385,7.694,4.757,13.956,9.708,198.0,595.0
2015-03-09,Shenyang,China,123.4323,41.8059,[122.9323 41.3059 123.9323 42.3059],7.911,4.381,12.53,8.908,8.408,5.324,14.538,10.399,179.0,593.0
2015-03-10,Shenyang,China,123.4323,41.8059,[122.9323 41.3059 123.9323 42.3059],7.716,4.527,12.013,8.758,8.551,4.997,14.218,10.251,199.0,602.0
2015-03-11,Shenyang,China,123.4323,41.8059,[122.9323 41.3059 123.9323 42.3059],8.19,4.607,12.699,9.264,8.461,4.887,13.92,10.117,227.0,602.0
2015-03-12,Shenyang,China,123.4323,41.8059,[122.9323 41.3059 123.9323 42.3059],9.111,5.653,13.157,10.025,8.657,5.223,13.085,9.897,195.0,599.0
2015-03-13,Shenyang,China,123.4323,41.8059,[122.9323 41.3059 123.9323 42.3059],8.844,6.018,13.101,10.113,8.629,5.378,13.183,10.01,228.0,598.0
2015-03-14,Shenyang,China,123.4323,41.8059,[122.9323 41.3059 123.9323 42.3059],7.943,5.419,12.6,9.498,8.727,5.361,13.791,10.307,190.0,595.0
2015-03-15,Shenyang,China,123.4323,41.8059,[122.9323 41.3059 123.9323 42.3059],7.943,5.419,12.6,9.498,8.245,5.161,13.546,10.047,190.0,552.0
2015-03-16,Shenyang,China,123.4323,41.8059,[122.9323 41.3059 123.9323 42.3059],7.943,5.419,12.6,9.498,7.513,4.997,12.409,9.625,190.0,551.0
2015-03-17,Shenyang,China,123.4323,41.8059,[122.9323 41.3059 123.9323 42.3059],8.19,5.618,12.013,9.467,8.226,5.295,12.532,9.87,223.0,556.0
2015-03-18,Shenyang,China,123.4323,41.8059,[122.9323 41.3059 123.9323 42.3059],8.844,6.01,13.101,10.128,8.333,5.343,13.379,10.335,247.0,554.0
2015-03-19,Shenyang,China,123.4323,41.8059,[122.9323 41.3059 123.9323 42.3059],9.55,6.263,13.504,10.557,8.763,5.692,13.35,10.523,237.0,567.0
2015-03-20,Shenyang,China,123.4323,41.8059,[122.9323 41.3059 123.9323 42.3059],9.867,6.43,13.785,10.817,9.138,6.089,13.967,10.864,262.0,563.0
2015-03-21,Shenyang,China,123.4323,41.8059,[122.9323 41.3059 123.9323 42.3059],11.05,7.205,13.918,11.436,8.99,5.974,13.292,10.726,222.0,549.0
2015-03-22,Shenyang,China,123.4323,41.8059,[122.9323 41.3059 123.9323 42.3059],11.184,7.912,14.7,12.11,9.255,6.304,14.438,11.247,254.0,553.0
2015-03-23,Shenyang,China,123.4323,41.8059,[122.9323 41.3059 123.9323 42.3059],10.938,7.563,15.201,12.341,9.451,6.412,14.618,11.462,218.0,554.0
2015-03-24,Shenyang,China,123.4323,41.8059,[122.9323 41.3059 123.9323 42.3059],10.936,7.417,15.08,12.212,9.107,5.9,13.848,10.794,220.0,555.0
2015-03-25,Shenyang,China,123.4323,41.8059,[122.9323 41.3059 123.9323 42.3059],11.418,8.271,15.937,12.845,9.124,6.075,14.172,10.937,200.0,554.0
2015-03-26,Shenyang,China,123.4323,41.8059,[122.9323 41.3059 123.9323 42.3059],11.184,8.031,15.08,12.505,9.588,6.065,14.388,11.111,172.0,568.0
2015-03-27,Shenyang,China,123.4323,41.8059,[122.9323 41.3059 123.9323 42.3059],10.936,7.227,14.838,12.15,9.558,5.975,13.997,10.976,187.0,570.0
2015-03-28,Shenyang,China,123.4323,41.8059,[122.9323 41.3059 123.9323 42.3059],11.418,8.271,14.868,12.52,9.79,6.174,14.246,11.131,154.0,565.0
2015-03-29,Shenyang,China,123.4323,41.8059,[122.9323 41.3059 123.9323 42.3059],10.903,7.769,14.57,11.888,9.639,5.911,14.207,10.916,165.0,564.0
2015-03-30,Shenyang,China,123.4323,41.8059,[122.9323 41.3059 123.9323 42.3059],10.903,7.769,14.57,11.888,9.475,5.843,14.057,10.762,165.0,604.0
2015-03-31,Shenyang,China,123.4323,41.8059,[122.9323 41.3059 123.9323 42.3059],9.106,5.472,13.555,10.316,9.241,5.356,14.049,10.491,203.0,608.0
2015-04-01,Shenyang,China,123.4323,41.8059,[122.9323 41.3059 123.9323 42.3059],9.106,5.157,13.918,10.624,8.548,5.098,13.758,10.14,165.0,607.0
2015-04-02,Shenyang,China,123.4323,41.8059,[122.9323 41.3059 123.9323 42.3059],8.554,5.157,13.194,10.034,8.281,5.04,13.866,9.772,152.0,610.0
2015-04-03,Shenyang,China,123.4323,41.8059,[122.9323 41.3059 123.9323 42.3059],8.132,4.632,13.775,10.295,8.105,4.876,13.825,9.867,170.0,607.0
2015-04-04,Shenyang,China,123.4323,41.8059,[122.9323 41.3059 123.9323 42.3059],7.227,4.542,12.254,9.76,7.863,4.846,13.564,9.739,145.0,615.0
2015-04-05,Shenyang,China,123.4323,41.8059,[122.9323 41.3059 123.9323 42.3059],7.227,4.542,12.254,9.76,7.56,4.718,13.448,9.583,145.0,613.0
2015-04-06,Shenyang,China,123.4323,41.8059,[122.9323 41.3059 123.9323 42.3059],5.556,3.893,8.554,7.527,6.852,4.584,11.804,8.772,113.0,603.0
2015-04-07,Shenyang,China,123.4323,41.8059,[122.9323 41.3059 123.9323 42.3059],5.472,4.004,9.385,7.604,6.581,4.343,11.319,8.41,151.0,610.0
2015-04-08,Shenyang,China,123.4323,41.8059,[122.9323 41.3059 123.9323 42.3059],5.556,4.004,9.511,7.691,7.044,4.468,11.833,8.706,149.0,611.0
2015-04-09,Shenyang,China,123.4323,41.8059,[122.9323 41.3059 123.9323 42.3059],5.556,4.004,9.511,7.691,6.79,4.261,11.802,8.42,149.0,611.0
2015-04-10,Shenyang,China,123.4323,41.8059,[122.9323 41.3059 123.9323 42.3059],5.556,4.004,9.511,7.691,7.056,4.437,11.86,8.574,149.0,604.0
2015-04-11,Shenyang,China,123.4323,41.8059,[122.9323 41.3059 123.9323 42.3059],5.627,4.101,10.572,8.003,6.489,4.421,11.655,8.449,139.0,615.0
2015-04-12,Shenyang,China,123.4323,41.8059,[122.9323 41.3059 123.9323 42.3059],5.627,4.101,10.572,8.003,6.464,4.414,11.37,8.435,139.0,616.0
2015-04-13,Shenyang,China,123.4323,41.8059,[122.9323 41.3059 123.9323 42.3059],5.627,3.983,10.829,8.219,6.342,4.457,11.093,8.371,128.0,610.0
2015-04-14,Shenyang,China,123.4323,41.8059,[122.9323 41.3059 123.9323 42.3059],5.803,4.203,11.479,8.311,6.934,4.641,11.614,8.608,143.0,609.0
2015-04-15,Shenyang,China,123.4323,41.8059,[122.9323 41.3059 123.9323 42.3059],9.217,5.083,12.795,10.144,7.681,4.798,11.96,9.021,105.0,604.0
2015-04-16,Shenyang,China,123.4323,41.8059,[122.9323 41.3059 123.9323 42.3059],9.217,5.083,12.795,10.144,8.143,4.989,12.186,9.287,105.0,562.0
2015-04-17,Shenyang,China,123.4323,41.8059,[122.9323 41.3059 123.9323 42.3059],7.088,4.98,12.952,9.853,7.642,4.825,11.913,8.964,88.0,519.0
2015-04-18,Shenyang,China,123.4323,41.8059,[122.9323 41.3059 123.9323 42.3059],11.094,5.351,16.307,11.384,8.163,4.836,12.184,9.073,97.0,522.0
2015-04-19,Shenyang,China,123.4323,41.8059,[122.9323 41.3059 123.9323 42.3059],10.839,5.974,15.808,11.269,7.868,5.122,11.997,8.824,126.0,521.0
2015-04-20,Shenyang,China,123.4323,41.8059,[122.9323 41.3059 123.9323 42.3059],9.923,7.009,14.278,10.742,8.338,5.574,12.324,9.276,137.0,528.0
2015-04-21,Shenyang,China,123.4323,41.8059,[122.9323 41.3059 123.9323 42.3059],10.653,7.139,14.327,11.109,8.463,5.718,12.191,9.302,163.0,519.0
2015-04-22,Shenyang,China,123.4323,41.8059,[122.9323 41.3059 123.9323 42.3059],11.198,8.77,15.808,12.265,8.656,6.126,12.237,9.424,126.0,504.0
2015-04-23,Shenyang,China,123.4323,41.8059,[122.9323 41.3059 123.9323 42.3059],11.056,8.739,15.734,12.02,8.557,6.174,12.215,9.437,167.0,509.0
2015-04-24,Shenyang,China,123.4323,41.8059,[122.9323 41.3059 123.9323 42.3059],11.056,8.739,15.734,12.02,8.315,6.061,11.909,9.308,167.0,512.0
2015-04-25,Shenyang,China,123.4323,41.8059,[122.9323 41.3059 123.9323 42.3059],11.056,8.739,15.734,12.02,8.011,5.951,11.575,8.969,167.0,512.0
2015-04-26,Shenyang,China,123.4323,41.8059,[122.9323 41.3059 123.9323 42.3059],10.923,7.985,15.117,11.831,8.408,5.952,11.652,9.017,172.0,506.0
2015-04-27,Shenyang,China,123.4323,41.8059,[122.9323 41.3059 123.9323 42.3059],9.658,6.854,13.896,10.717,8.226,5.689,11.42,8.882,200.0,513.0
2015-04-28,Shenyang,China,123.4323,41.8059,[122.9323 41.3059 123.9323 42.3059],9.555,6.596,13.81,10.517,8.121,5.596,11.355,8.794,213.0,513.0
2015-04-29,Shenyang,China,123.4323,41.8059,[122.9323 41.3059 123.9323 42.3059],9.472,6.376,13.324,10.401,8.068,5.452,11.168,8.674,216.0,509.0
2015-04-30,Shenyang,China,123.4323,41.8059,[122.9323 41.3059 123.9323 42.3059],9.056,6.055,12.567,10.118,7.615,5.256,10.371,8.313,233.0,507.0
2015-05-01,Shenyang,China,123.4323,41.8059,[122.9323 41.3059 123.9323 42.3059],9.056,6.055,12.567,10.118,7.437,5.075,10.449,8.285,233.0,547.0
2015-05-02,Shenyang,China,123.4323,41.8059,[122.9323 41.3059 123.9323 42.3059],8.77,5.743,12.114,9.734,7.597,5.211,10.534,8.363,267.0,589.0
2015-05-03,Shenyang,China,123.4323,41.8059,[122.9323 41.3059 123.9323 42.3059],7.672,5.537,10.689,8.541,7.255,5.162,9.896,7.945,228.0,613.0
2015-05-04,Shenyang,China,123.4323,41.8059,[122.9323 41.3059 123.9323 42.3059],7.629,5.49,10.618,8.419,7.272,5.259,9.8,7.956,199.0,650.0
2015-05-05,Shenyang,China,123.4323,41.8059,[122.9323 41.3059 123.9323 42.3059],7.168,5.418,10.789,8.402,7.043,5.077,9.504,7.686,188.0,650.0
2015-05-06,Shenyang,China,123.4323,41.8059,[122.9323 41.3059 123.9323 42.3059],6.854,5.347,9.668,7.933,7.064,5.128,9.574,7.773,200.0,662.0
2015-05-07,Shenyang,China,123.4323,41.8059,[122.9323 41.3059 123.9323 42.3059],6.802,5.182,9.668,7.841,6.983,5.129,9.351,7.697,206.0,660.0
2015-05-08,Shenyang,China,123.4323,41.8059,[122.9323 41.3059 123.9323 42.3059],6.34,4.566,8.398,6.876,7.044,5.077,9.148,7.416,174.0,648.0
2015-05-09,Shenyang,China,123.4323,41.8059,[122.9323 41.3059 123.9323 42.3059],6.854,4.963,10.056,7.928,7.183,5.254,9.605,7.678,211.0,651.0
2015-05-10,Shenyang,China,123.4323,41.8059,[122.9323 41.3059 123.9323 42.3059],6.854,4.963,10.056,7.928,7.224,5.27,9.537,7.765,211.0,654.0
2015-05-11,Shenyang,China,123.4323,41.8059,[122.9323 41.3059 123.9323 42.3059],6.854,5.04,10.056,7.929,7.089,5.27,9.436,7.682,204.0,654.0
2015-05-12,Shenyang,China,123.4323,41.8059,[122.9323 41.3059 123.9323 42.3059],7.672,5.418,10.505,8.335,7.174,5.326,9.337,7.658,186.0,654.0
2015-05-13,Shenyang,China,123.4323,41.8059,[122.9323 41.3059 123.9323 42.3059],7.823,5.794,10.469,8.452,7.227,5.422,9.354,7.704,202.0,662.0
2015-05-14,Shenyang,China,123.4323,41.8059,[122.9323 41.3059 123.9323 42.3059],8.0,5.857,10.649,8.728,7.218,5.361,9.384,7.721,212.0,662.0
2015-05-15,Shenyang,China,123.4323,41.8059,[122.9323 41.3059 123.9323 42.3059],8.398,5.992,10.649,8.877,7.389,5.482,9.609,7.932,212.0,658.0
2015-05-16,Shenyang,China,123.4323,41.8059,[122.9323 41.3059 123.9323 42.3059],8.043,5.805,10.649,8.642,7.201,5.378,9.453,7.81,244.0,656.0
2015-05-17,Shenyang,China,123.4323,41.8059,[122.9323 41.3059 123.9323 42.3059],8.398,5.972,10.666,8.855,7.401,5.553,9.524,7.935,210.0,652.0
2015-05-18,Shenyang,China,123.4323,41.8059,[122.9323 41.3059 123.9323 42.3059],8.398,5.972,10.666,8.855,7.351,5.45,9.533,7.915,210.0,586.0
2015-05-19,Shenyang,China,123.4323,41.8059,[122.9323 41.3059 123.9323 42.3059],8.398,5.972,10.666,8.855,7.301,5.519,9.413,7.822,210.0,554.0
2015-05-20,Shenyang,China,123.4323,41.8059,[122.9323 41.3059 123.9323 42.3059],8.685,6.34,11.503,9.049,7.337,5.496,9.639,7.887,225.0,557.0
2015-05-21,Shenyang,China,123.4323,41.8059,[122.9323 41.3059 123.9323 42.3059],8.732,5.976,11.503,9.115,7.178,5.272,9.488,7.664,198.0,556.0
2015-05-22,Shenyang,China,123.4323,41.8059,[122.9323 41.3059 123.9323 42.3059],8.956,6.576,11.582,9.238,7.173,5.336,9.472,7.64,191.0,567.0
2015-05-23,Shenyang,China,123.4323,41.8059,[122.9323 41.3059 123.9323 42.3059],8.685,5.976,11.154,9.007,7.113,5.168,9.181,7.582,207.0,562.0
2015-05-24,Shenyang,China,123.4323,41.8059,[122.9323 41.3059 123.9323 42.3059],7.851,5.567,10.192,8.097,6.877,5.15,8.791,7.319,179.0,548.0
2015-05-25,Shenyang,China,123.4323,41.8059,[122.9323 41.3059 123.9323 42.3059],7.895,5.705,10.582,8.322,6.884,5.164,8.934,7.438,195.0,552.0
2015-05-26,Shenyang,China,123.4323,41.8059,[122.9323 41.3059 123.9323 42.3059],8.0,5.805,10.604,8.4,6.786,5.159,9.089,7.453,192.0,554.0
2015-05-27,Shenyang,China,123.4323,41.8059,[122.9323 41.3059 123.9323 42.3059],8.098,6.272,10.649,8.68,6.917,5.244,9.247,7.62,218.0,554.0
2015-05-28,Shenyang,China,123.4323,41.8059,[122.9323 41.3059 123.9323 42.3059],8.177,5.815,11.154,8.71,7.095,5.189,9.304,7.651,195.0,554.0
2015-05-29,Shenyang,China,123.4323,41.8059,[122.9323 41.3059 123.9323 42.3059],8.098,5.796,10.669,8.542,7.126,5.191,9.219,7.623,167.0,561.0
2015-05-30,Shenyang,China,123.4323,41.8059,[122.9323 41.3059 123.9323 42.3059],8.027,5.567,11.154,8.522,7.093,5.122,9.177,7.523,150.0,560.0
2015-05-31,Shenyang,China,123.4323,41.8059,[122.9323 41.3059 123.9323 42.3059],8.121,6.072,11.195,8.781,7.459,5.285,9.694,7.845,130.0,559.0
2015-06-01,Shenyang,China,123.4323,41.8059,[122.9323 41.3059 123.9323 42.3059],7.895,6.14,10.799,8.532,6.79,5.113,9.352,7.498,142.0,558.0
2015-06-02,Shenyang,China,123.4323,41.8059,[122.9323 41.3059 123.9323 42.3059],7.895,6.14,10.799,8.532,7.016,5.176,9.286,7.601,142.0,597.0
2015-06-03,Shenyang,China,123.4323,41.8059,[122.9323 41.3059 123.9323 42.3059],7.895,6.14,10.799,8.532,6.873,5.105,9.341,7.604,142.0,599.0
2015-06-04,Shenyang,China,123.4323,41.8059,[122.9323 41.3059 123.9323 42.3059],7.515,5.796,9.544,8.092,6.877,5.112,9.251,7.562,127.0,617.0
2015-06-05,Shenyang,China,123.4323,41.8059,[122.9323 41.3059 123.9323 42.3059],7.547,5.815,9.636,8.201,7.249,5.357,9.66,7.883,118.0,620.0
2015-06-06,Shenyang,China,123.4323,41.8059,[122.9323 41.3059 123.9323 42.3059],7.661,6.14,10.372,8.428,7.589,5.586,9.926,8.106,143.0,616.0
2015-06-07,Shenyang,China,123.4323,41.8059,[122.9323 41.3059 123.9323 42.3059],7.35,5.67,10.054,8.137,7.625,5.565,10.04,8.185,138.0,627.0
2015-06-08,Shenyang,China,123.4323,41.8059,[122.9323 41.3059 123.9323 42.3059],7.661,5.67,10.424,8.417,7.702,5.508,10.095,8.249,154.0,623.0
2015-06-09,Shenyang,China,123.4323,41.8059,[122.9323 41.3059 123.9323 42.3059],7.587,5.67,10.319,8.361,7.715,5.495,10.021,8.141,147.0,611.0
2015-06-10,Shenyang,China,123.4323,41.8059,[122.9323 41.3059 123.9323 42.3059],8.098,5.815,11.16,8.817,8.019,5.752,10.367,8.47,169.0,616.0
2015-06-11,Shenyang,China,123.4323,41.8059,[122.9323 41.3059 123.9323 42.3059],7.579,5.541,11.131,8.669,7.889,5.677,10.333,8.412,133.0,617.0
2015-06-12,Shenyang,China,123.4323,41.8059,[122.9323 41.3059 123.9323 42.3059],8.331,5.67,11.118,8.684,7.954,5.53,10.319,8.365,134.0,617.0
2015-06-13,Shenyang,China,123.4323,41.8059,[122.9323 41.3059 123.9323 42.3059],8.331,5.67,11.118,8.662,7.707,5.479,10.013,8.165,155.0,617.0
2015-06-14,Shenyang,China,123.4323,41.8059,[122.9323 41.3059 123.9323 42.3059],6.788,5.486,10.085,7.998,7.417,5.548,9.869,8.083,184.0,627.0
2015-06-15,Shenyang,China,123.4323,41.8059,[122.9323 41.3059 123.9323 42.3059],6.788,5.473,9.773,7.923,6.906,5.306,9.223,7.65,200.0,625.0
2015-06-16,Shenyang,China,123.4323,41.8059,[122.9323 41.3059 123.9323 42.3059],6.814,5.402,9.958,7.968,7.131,5.484,9.428,7.786,205.0,624.0